Year,Month,Day,Hour,Minute,Value (Times are PST for temperature in C)
2014,04,02,00,00,6.10
2014,04,02,00,01,6.00
2014,04,02,00,02,6.00
2014,04,02,00,03,5.90
2014,04,02,00,04,5.90
2014,04,02,00,05,5.90
2014,04,02,00,06,5.90
2014,04,02,00,07,5.90
2014,04,02,00,08,5.90
2014,04,02,00,09,5.90
2014,04,02,00,10,5.90
2014,04,02,00,11,5.90
2014,04,02,00,12,5.90
2014,04,02,00,13,5.90
2014,04,02,00,14,5.90
2014,04,02,00,15,5.90
2014,04,02,00,16,5.90
2014,04,02,00,17,5.90
2014,04,02,00,18,5.90
2014,04,02,00,19,5.90
2014,04,02,00,20,6.00
2014,04,02,00,21,6.00
2014,04,02,00,22,6.00
2014,04,02,00,23,6.10
2014,04,02,00,24,6.10
2014,04,02,00,25,6.10
2014,04,02,00,26,6.10
2014,04,02,00,27,6.10
2014,04,02,00,28,6.10
2014,04,02,00,29,6.10
2014,04,02,00,30,6.10
2014,04,02,00,31,6.20
2014,04,02,00,32,6.20
2014,04,02,00,33,6.20
2014,04,02,00,34,6.20
2014,04,02,00,35,6.20
2014,04,02,00,36,6.20
2014,04,02,00,37,6.20
2014,04,02,00,38,6.20
2014,04,02,00,39,6.10
2014,04,02,00,40,6.10
2014,04,02,00,41,6.10
2014,04,02,00,42,6.10
2014,04,02,00,43,6.10
2014,04,02,00,44,6.10
2014,04,02,00,45,6.10
2014,04,02,00,46,6.00
2014,04,02,00,47,6.00
2014,04,02,00,48,6.00
2014,04,02,00,49,5.90
2014,04,02,00,50,5.90
2014,04,02,00,51,5.90
2014,04,02,00,52,5.90
2014,04,02,00,53,5.90
2014,04,02,00,54,5.80
2014,04,02,00,55,5.80
2014,04,02,00,56,5.80
2014,04,02,00,57,5.80
2014,04,02,00,58,5.80
2014,04,02,00,59,5.70
2014,04,02,01,00,5.70
2014,04,02,01,01,5.70
2014,04,02,01,02,5.70
2014,04,02,01,03,5.60
2014,04,02,01,04,5.60
2014,04,02,01,05,5.60
2014,04,02,01,06,5.50
2014,04,02,01,07,5.50
2014,04,02,01,08,5.50
2014,04,02,01,09,5.50
2014,04,02,01,10,5.40
2014,04,02,01,11,5.40
2014,04,02,01,12,5.40
2014,04,02,01,13,5.40
2014,04,02,01,14,5.40
2014,04,02,01,15,5.30
2014,04,02,01,16,5.30
2014,04,02,01,17,5.30
2014,04,02,01,18,5.30
2014,04,02,01,19,5.30
2014,04,02,01,20,5.30
2014,04,02,01,21,5.30
2014,04,02,01,22,5.30
2014,04,02,01,23,5.30
2014,04,02,01,24,5.30
2014,04,02,01,25,5.30
2014,04,02,01,26,5.40
2014,04,02,01,27,5.40
2014,04,02,01,28,5.50
2014,04,02,01,29,5.50
2014,04,02,01,30,5.60
2014,04,02,01,31,5.60
2014,04,02,01,32,5.60
2014,04,02,01,33,5.60
2014,04,02,01,34,5.60
2014,04,02,01,35,5.60
2014,04,02,01,36,5.70
2014,04,02,01,37,5.70
2014,04,02,01,38,5.70
2014,04,02,01,39,5.70
2014,04,02,01,40,5.80
2014,04,02,01,41,5.80
2014,04,02,01,42,5.80
2014,04,02,01,43,5.80
2014,04,02,01,44,5.80
2014,04,02,01,45,5.80
2014,04,02,01,46,5.80
2014,04,02,01,47,5.80
2014,04,02,01,48,5.80
2014,04,02,01,49,5.80
2014,04,02,01,50,5.80
2014,04,02,01,51,5.80
2014,04,02,01,52,5.80
2014,04,02,01,53,5.80
2014,04,02,01,54,5.80
2014,04,02,01,55,5.70
2014,04,02,01,56,5.70
2014,04,02,01,57,5.70
2014,04,02,01,58,5.70
2014,04,02,01,59,5.70
2014,04,02,02,00,5.60
2014,04,02,02,01,5.60
2014,04,02,02,02,5.60
2014,04,02,02,03,5.60
2014,04,02,02,04,5.50
2014,04,02,02,05,5.50
2014,04,02,02,06,5.40
2014,04,02,02,07,5.40
2014,04,02,02,08,5.40
2014,04,02,02,09,5.30
2014,04,02,02,10,5.30
2014,04,02,02,11,5.30
2014,04,02,02,12,5.30
2014,04,02,02,13,5.20
2014,04,02,02,14,5.20
2014,04,02,02,15,5.20
2014,04,02,02,16,5.10
2014,04,02,02,17,5.10
2014,04,02,02,18,5.10
2014,04,02,02,19,5.00
2014,04,02,02,20,5.00
2014,04,02,02,21,5.00
2014,04,02,02,22,4.90
2014,04,02,02,23,4.90
2014,04,02,02,24,4.90
2014,04,02,02,25,4.90
2014,04,02,02,26,4.80
2014,04,02,02,27,4.80
2014,04,02,02,28,4.80
2014,04,02,02,29,4.80
2014,04,02,02,30,4.80
2014,04,02,02,31,4.80
2014,04,02,02,32,4.70
2014,04,02,02,33,4.70
2014,04,02,02,34,4.70
2014,04,02,02,35,4.70
2014,04,02,02,36,4.70
2014,04,02,02,37,4.70
2014,04,02,02,38,4.60
2014,04,02,02,39,4.60
2014,04,02,02,40,4.60
2014,04,02,02,41,4.60
2014,04,02,02,42,4.60
2014,04,02,02,43,4.60
2014,04,02,02,44,4.60
2014,04,02,02,45,4.60
2014,04,02,02,46,4.60
2014,04,02,02,47,4.60
2014,04,02,02,48,4.50
2014,04,02,02,49,4.50
2014,04,02,02,50,4.50
2014,04,02,02,51,4.50
2014,04,02,02,52,4.50
2014,04,02,02,53,4.50
2014,04,02,02,54,4.40
2014,04,02,02,55,4.40
2014,04,02,02,56,4.40
2014,04,02,02,57,4.40
2014,04,02,02,58,4.40
2014,04,02,02,59,4.40
2014,04,02,03,00,4.40
2014,04,02,03,01,4.40
2014,04,02,03,02,4.40
2014,04,02,03,03,4.40
2014,04,02,03,04,4.40
2014,04,02,03,05,4.40
2014,04,02,03,06,4.40
2014,04,02,03,07,4.40
2014,04,02,03,08,4.40
2014,04,02,03,09,4.40
2014,04,02,03,10,4.40
2014,04,02,03,11,4.40
2014,04,02,03,12,4.40
2014,04,02,03,13,4.40
2014,04,02,03,14,4.40
2014,04,02,03,15,4.40
2014,04,02,03,16,4.40
2014,04,02,03,17,4.40
2014,04,02,03,18,4.40
2014,04,02,03,19,4.40
2014,04,02,03,20,4.30
2014,04,02,03,21,4.30
2014,04,02,03,22,4.30
2014,04,02,03,23,4.30
2014,04,02,03,24,4.30
2014,04,02,03,25,4.30
2014,04,02,03,26,4.30
2014,04,02,03,27,4.30
2014,04,02,03,28,4.30
2014,04,02,03,29,4.30
2014,04,02,03,30,4.30
2014,04,02,03,31,4.30
2014,04,02,03,32,4.30
2014,04,02,03,33,4.30
2014,04,02,03,34,4.30
2014,04,02,03,35,4.20
2014,04,02,03,36,4.20
2014,04,02,03,37,4.20
2014,04,02,03,38,4.20
2014,04,02,03,39,4.20
2014,04,02,03,40,4.20
2014,04,02,03,41,4.20
2014,04,02,03,42,4.20
2014,04,02,03,43,4.20
2014,04,02,03,44,4.20
2014,04,02,03,45,4.20
2014,04,02,03,46,4.20
2014,04,02,03,47,4.20
2014,04,02,03,48,4.20
2014,04,02,03,49,4.20
2014,04,02,03,50,4.20
2014,04,02,03,51,4.20
2014,04,02,03,52,4.20
2014,04,02,03,53,4.20
2014,04,02,03,54,4.20
2014,04,02,03,55,4.20
2014,04,02,03,56,4.20
2014,04,02,03,57,4.20
2014,04,02,03,58,4.20
2014,04,02,03,59,4.20
2014,04,02,04,00,4.20
2014,04,02,04,01,4.20
2014,04,02,04,02,4.20
2014,04,02,04,03,4.20
2014,04,02,04,04,4.20
2014,04,02,04,05,4.20
2014,04,02,04,06,4.10
2014,04,02,04,07,4.20
2014,04,02,04,08,4.20
2014,04,02,04,09,4.20
2014,04,02,04,10,4.20
2014,04,02,04,11,4.20
2014,04,02,04,12,4.20
2014,04,02,04,13,4.20
2014,04,02,04,14,4.20
2014,04,02,04,15,4.20
2014,04,02,04,16,4.20
2014,04,02,04,17,4.20
2014,04,02,04,18,4.20
2014,04,02,04,19,4.20
2014,04,02,04,20,4.20
2014,04,02,04,21,4.20
2014,04,02,04,22,4.20
2014,04,02,04,23,4.10
2014,04,02,04,24,4.10
2014,04,02,04,25,4.10
2014,04,02,04,26,4.10
2014,04,02,04,27,4.10
2014,04,02,04,28,4.10
2014,04,02,04,29,4.10
2014,04,02,04,30,4.10
2014,04,02,04,31,4.10
2014,04,02,04,32,4.10
2014,04,02,04,33,4.10
2014,04,02,04,34,4.10
2014,04,02,04,35,4.10
2014,04,02,04,36,4.10
2014,04,02,04,37,4.10
2014,04,02,04,38,4.00
2014,04,02,04,39,4.00
2014,04,02,04,40,4.00
2014,04,02,04,41,4.00
2014,04,02,04,42,4.00
2014,04,02,04,43,3.90
2014,04,02,04,44,3.90
2014,04,02,04,45,3.90
2014,04,02,04,46,3.90
2014,04,02,04,47,3.90
2014,04,02,04,48,3.90
2014,04,02,04,49,3.80
2014,04,02,04,50,3.80
2014,04,02,04,51,3.80
2014,04,02,04,52,3.80
2014,04,02,04,53,3.80
2014,04,02,04,54,3.80
2014,04,02,04,55,3.80
2014,04,02,04,56,3.80
2014,04,02,04,57,3.80
2014,04,02,04,58,3.80
2014,04,02,04,59,3.80
2014,04,02,05,00,3.80
2014,04,02,05,01,3.80
2014,04,02,05,02,3.80
2014,04,02,05,03,3.80
2014,04,02,05,04,3.80
2014,04,02,05,05,3.80
2014,04,02,05,06,3.80
2014,04,02,05,07,3.80
2014,04,02,05,08,3.80
2014,04,02,05,09,3.80
2014,04,02,05,10,3.80
2014,04,02,05,11,3.80
2014,04,02,05,12,3.80
2014,04,02,05,13,3.80
2014,04,02,05,14,3.80
2014,04,02,05,15,3.80
2014,04,02,05,16,3.70
2014,04,02,05,17,3.70
2014,04,02,05,18,3.70
2014,04,02,05,19,3.70
2014,04,02,05,20,3.70
2014,04,02,05,21,3.70
2014,04,02,05,22,3.70
2014,04,02,05,23,3.70
2014,04,02,05,24,3.70
2014,04,02,05,25,3.70
2014,04,02,05,26,3.70
2014,04,02,05,27,3.70
2014,04,02,05,28,3.70
2014,04,02,05,29,3.70
2014,04,02,05,30,3.70
2014,04,02,05,31,3.70
2014,04,02,05,32,3.70
2014,04,02,05,33,3.70
2014,04,02,05,34,3.70
2014,04,02,05,35,3.70
2014,04,02,05,36,3.70
2014,04,02,05,37,3.70
2014,04,02,05,38,3.70
2014,04,02,05,39,3.70
2014,04,02,05,40,3.70
2014,04,02,05,41,3.70
2014,04,02,05,42,3.60
2014,04,02,05,43,3.60
2014,04,02,05,44,3.60
2014,04,02,05,45,3.60
2014,04,02,05,46,3.60
2014,04,02,05,47,3.60
2014,04,02,05,48,3.60
2014,04,02,05,49,3.60
2014,04,02,05,50,3.50
2014,04,02,05,51,3.50
2014,04,02,05,52,3.50
2014,04,02,05,53,3.50
2014,04,02,05,54,3.50
2014,04,02,05,55,3.50
2014,04,02,05,56,3.40
2014,04,02,05,57,3.40
2014,04,02,05,58,3.40
2014,04,02,05,59,3.40
2014,04,02,06,00,3.40
2014,04,02,06,01,3.40
2014,04,02,06,02,3.40
2014,04,02,06,03,3.40
2014,04,02,06,04,3.40
2014,04,02,06,05,3.40
2014,04,02,06,06,3.40
2014,04,02,06,07,3.40
2014,04,02,06,08,3.40
2014,04,02,06,09,3.40
2014,04,02,06,10,3.40
2014,04,02,06,11,3.40
2014,04,02,06,12,3.40
2014,04,02,06,13,3.40
2014,04,02,06,14,3.40
2014,04,02,06,15,3.40
2014,04,02,06,16,3.40
2014,04,02,06,17,3.40
2014,04,02,06,18,3.40
2014,04,02,06,19,3.40
2014,04,02,06,20,3.40
2014,04,02,06,21,3.40
2014,04,02,06,22,3.40
2014,04,02,06,23,3.30
2014,04,02,06,24,3.30
2014,04,02,06,25,3.30
2014,04,02,06,26,3.30
2014,04,02,06,27,3.30
2014,04,02,06,28,3.30
2014,04,02,06,29,3.20
2014,04,02,06,30,3.20
2014,04,02,06,31,3.20
2014,04,02,06,32,3.20
2014,04,02,06,33,3.20
2014,04,02,06,34,3.10
2014,04,02,06,35,3.10
2014,04,02,06,36,3.10
2014,04,02,06,37,3.10
2014,04,02,06,38,3.10
2014,04,02,06,39,3.00
2014,04,02,06,40,3.00
2014,04,02,06,41,3.00
2014,04,02,06,42,2.90
2014,04,02,06,43,2.90
2014,04,02,06,44,2.90
2014,04,02,06,45,2.90
2014,04,02,06,46,2.90
2014,04,02,06,47,2.90
2014,04,02,06,48,2.90
2014,04,02,06,49,2.90
2014,04,02,06,50,2.90
2014,04,02,06,51,2.90
2014,04,02,06,52,2.90
2014,04,02,06,53,2.90
2014,04,02,06,54,2.90
2014,04,02,06,55,2.90
2014,04,02,06,56,2.80
2014,04,02,06,57,2.80
2014,04,02,06,58,2.80
2014,04,02,06,59,2.80
2014,04,02,07,00,2.80
2014,04,02,07,01,2.80
2014,04,02,07,02,2.80
2014,04,02,07,03,2.80
2014,04,02,07,04,2.80
2014,04,02,07,05,2.80
2014,04,02,07,06,2.80
2014,04,02,07,07,2.80
2014,04,02,07,08,2.80
2014,04,02,07,09,2.80
2014,04,02,07,10,2.80
2014,04,02,07,11,2.80
2014,04,02,07,12,2.80
2014,04,02,07,13,2.80
2014,04,02,07,14,2.80
2014,04,02,07,15,2.80
2014,04,02,07,16,2.80
2014,04,02,07,17,2.80
2014,04,02,07,18,2.90
2014,04,02,07,19,2.90
2014,04,02,07,20,2.90
2014,04,02,07,21,2.90
2014,04,02,07,22,2.90
2014,04,02,07,23,2.90
2014,04,02,07,24,2.90
2014,04,02,07,25,3.00
2014,04,02,07,26,3.00
2014,04,02,07,27,3.00
2014,04,02,07,28,3.10
2014,04,02,07,29,3.10
2014,04,02,07,30,3.10
2014,04,02,07,31,3.10
2014,04,02,07,32,3.20
2014,04,02,07,33,3.20
2014,04,02,07,34,3.20
2014,04,02,07,35,3.20
2014,04,02,07,36,3.30
2014,04,02,07,37,3.30
2014,04,02,07,38,3.30
2014,04,02,07,39,3.30
2014,04,02,07,40,3.30
2014,04,02,07,41,3.30
2014,04,02,07,42,3.40
2014,04,02,07,43,3.40
2014,04,02,07,44,3.40
2014,04,02,07,45,3.40
2014,04,02,07,46,3.40
2014,04,02,07,47,3.40
2014,04,02,07,48,3.40
2014,04,02,07,49,3.40
2014,04,02,07,50,3.40
2014,04,02,07,51,3.50
2014,04,02,07,52,3.50
2014,04,02,07,53,3.50
2014,04,02,07,54,3.50
2014,04,02,07,55,3.50
2014,04,02,07,56,3.50
2014,04,02,07,57,3.60
2014,04,02,07,58,3.60
2014,04,02,07,59,3.60
2014,04,02,08,00,3.60
2014,04,02,08,01,3.60
2014,04,02,08,02,3.70
2014,04,02,08,03,3.70
2014,04,02,08,04,3.70
2014,04,02,08,05,3.70
2014,04,02,08,06,3.70
2014,04,02,08,07,3.70
2014,04,02,08,08,3.70
2014,04,02,08,09,3.80
2014,04,02,08,10,3.80
2014,04,02,08,11,3.80
2014,04,02,08,12,3.80
2014,04,02,08,13,3.80
2014,04,02,08,14,3.80
2014,04,02,08,15,3.90
2014,04,02,08,16,3.90
2014,04,02,08,17,3.90
2014,04,02,08,18,4.00
2014,04,02,08,19,4.00
2014,04,02,08,20,4.00
2014,04,02,08,21,4.10
2014,04,02,08,22,4.10
2014,04,02,08,23,4.10
2014,04,02,08,24,4.20
2014,04,02,08,25,4.20
2014,04,02,08,26,4.30
2014,04,02,08,27,4.30
2014,04,02,08,28,4.30
2014,04,02,08,29,4.40
2014,04,02,08,30,4.50
2014,04,02,08,31,4.60
2014,04,02,08,32,4.60
2014,04,02,08,33,4.70
2014,04,02,08,34,4.80
2014,04,02,08,35,4.90
2014,04,02,08,36,5.00
2014,04,02,08,37,5.10
2014,04,02,08,38,5.20
2014,04,02,08,39,5.30
2014,04,02,08,40,5.40
2014,04,02,08,41,5.50
2014,04,02,08,42,5.60
2014,04,02,08,43,5.70
2014,04,02,08,44,5.70
2014,04,02,08,45,5.80
2014,04,02,08,46,5.90
2014,04,02,08,47,6.00
2014,04,02,08,48,6.00
2014,04,02,08,49,6.10
2014,04,02,08,50,6.20
2014,04,02,08,51,6.30
2014,04,02,08,52,6.50
2014,04,02,08,53,6.60
2014,04,02,08,54,6.80
2014,04,02,08,55,6.90
2014,04,02,08,56,7.10
2014,04,02,08,57,7.20
2014,04,02,08,58,7.40
2014,04,02,08,59,7.50
2014,04,02,09,00,7.60
2014,04,02,09,01,7.80
2014,04,02,09,02,7.90
2014,04,02,09,03,8.00
2014,04,02,09,04,8.10
2014,04,02,09,05,8.20
2014,04,02,09,06,8.20
2014,04,02,09,07,8.30
2014,04,02,09,08,8.30
2014,04,02,09,09,8.40
2014,04,02,09,10,8.40
2014,04,02,09,11,8.50
2014,04,02,09,12,8.50
2014,04,02,09,13,8.60
2014,04,02,09,14,8.60
2014,04,02,09,15,8.60
2014,04,02,09,16,8.70
2014,04,02,09,17,8.70
2014,04,02,09,18,8.70
2014,04,02,09,19,8.70
2014,04,02,09,20,8.70
2014,04,02,09,21,8.80
2014,04,02,09,22,8.80
2014,04,02,09,23,8.80
2014,04,02,09,24,8.80
2014,04,02,09,25,8.80
2014,04,02,09,26,8.80
2014,04,02,09,27,8.80
2014,04,02,09,28,8.80
2014,04,02,09,29,8.80
2014,04,02,09,30,8.80
2014,04,02,09,31,8.80
2014,04,02,09,32,8.80
2014,04,02,09,33,8.80
2014,04,02,09,34,8.80
2014,04,02,09,35,8.70
2014,04,02,09,36,8.70
2014,04,02,09,37,8.70
2014,04,02,09,38,8.70
2014,04,02,09,39,8.70
2014,04,02,09,40,8.70
2014,04,02,09,41,8.70
2014,04,02,09,42,8.70
2014,04,02,09,43,8.80
2014,04,02,09,44,8.80
2014,04,02,09,45,8.80
2014,04,02,09,46,8.80
2014,04,02,09,47,8.80
2014,04,02,09,48,8.80
2014,04,02,09,49,8.90
2014,04,02,09,50,8.90
2014,04,02,09,51,9.00
2014,04,02,09,52,9.00
2014,04,02,09,53,9.00
2014,04,02,09,54,9.10
2014,04,02,09,55,9.10
2014,04,02,09,56,9.20
2014,04,02,09,57,9.20
2014,04,02,09,58,9.20
2014,04,02,09,59,9.20
2014,04,02,10,00,9.20
2014,04,02,10,01,9.20
2014,04,02,10,02,9.20
2014,04,02,10,03,9.20
2014,04,02,10,04,9.20
2014,04,02,10,05,9.30
2014,04,02,10,06,9.30
2014,04,02,10,07,9.30
2014,04,02,10,08,9.40
2014,04,02,10,09,9.40
2014,04,02,10,10,9.50
2014,04,02,10,11,9.50
2014,04,02,10,12,9.60
2014,04,02,10,13,9.70
2014,04,02,10,14,9.80
2014,04,02,10,15,9.90
2014,04,02,10,16,9.90
2014,04,02,10,17,10.10
2014,04,02,10,18,10.20
2014,04,02,10,19,10.20
2014,04,02,10,20,10.30
2014,04,02,10,21,10.30
2014,04,02,10,22,10.40
2014,04,02,10,23,10.60
2014,04,02,10,24,10.60
2014,04,02,10,25,10.70
2014,04,02,10,26,10.80
2014,04,02,10,27,10.80
2014,04,02,10,28,10.80
2014,04,02,10,29,10.90
2014,04,02,10,30,10.90
2014,04,02,10,31,11.00
2014,04,02,10,32,11.00
2014,04,02,10,33,11.00
2014,04,02,10,34,11.00
2014,04,02,10,35,11.10
2014,04,02,10,36,11.10
2014,04,02,10,37,11.00
2014,04,02,10,38,11.00
2014,04,02,10,39,11.00
2014,04,02,10,40,11.00
2014,04,02,10,41,11.00
2014,04,02,10,42,11.10
2014,04,02,10,43,11.10
2014,04,02,10,44,11.10
2014,04,02,10,45,11.10
2014,04,02,10,46,11.10
2014,04,02,10,47,11.10
2014,04,02,10,48,11.10
2014,04,02,10,49,11.10
2014,04,02,10,50,11.10
2014,04,02,10,51,11.20
2014,04,02,10,52,11.20
2014,04,02,10,53,11.20
2014,04,02,10,54,11.20
2014,04,02,10,55,11.20
2014,04,02,10,56,11.20
2014,04,02,10,57,11.30
2014,04,02,10,58,11.30
2014,04,02,10,59,11.40
2014,04,02,11,00,11.50
2014,04,02,11,01,11.50
2014,04,02,11,02,11.60
2014,04,02,11,03,11.70
2014,04,02,11,04,11.80
2014,04,02,11,05,11.80
2014,04,02,11,06,11.90
2014,04,02,11,07,11.90
2014,04,02,11,08,12.00
2014,04,02,11,09,12.00
2014,04,02,11,10,12.10
2014,04,02,11,11,12.10
2014,04,02,11,12,12.10
2014,04,02,11,13,12.10
2014,04,02,11,14,12.10
2014,04,02,11,15,12.10
2014,04,02,11,16,12.10
2014,04,02,11,17,12.10
2014,04,02,11,18,12.10
2014,04,02,11,19,12.10
2014,04,02,11,20,12.10
2014,04,02,11,21,12.20
2014,04,02,11,22,12.20
2014,04,02,11,23,12.30
2014,04,02,11,24,12.30
2014,04,02,11,25,12.30
2014,04,02,11,26,12.30
2014,04,02,11,27,12.20
2014,04,02,11,28,12.20
2014,04,02,11,29,12.20
2014,04,02,11,30,12.30
2014,04,02,11,31,12.20
2014,04,02,11,32,12.20
2014,04,02,11,33,12.20
2014,04,02,11,34,12.10
2014,04,02,11,35,12.10
2014,04,02,11,36,12.20
2014,04,02,11,37,12.20
2014,04,02,11,38,12.20
2014,04,02,11,39,12.20
2014,04,02,11,40,12.20
2014,04,02,11,41,12.20
2014,04,02,11,42,12.20
2014,04,02,11,43,12.30
2014,04,02,11,44,12.40
2014,04,02,11,45,12.40
2014,04,02,11,46,12.40
2014,04,02,11,47,12.40
2014,04,02,11,48,12.40
2014,04,02,11,49,12.40
2014,04,02,11,50,12.40
2014,04,02,11,51,12.40
2014,04,02,11,52,12.30
2014,04,02,11,53,12.30
2014,04,02,11,54,12.30
2014,04,02,11,55,12.30
2014,04,02,11,56,12.30
2014,04,02,11,57,12.40
2014,04,02,11,58,12.40
2014,04,02,11,59,12.40
2014,04,02,12,00,12.30
2014,04,02,12,01,12.30
2014,04,02,12,02,12.30
2014,04,02,12,03,12.30
2014,04,02,12,04,12.30
2014,04,02,12,05,12.30
2014,04,02,12,06,12.30
2014,04,02,12,07,12.30
2014,04,02,12,08,12.30
2014,04,02,12,09,12.20
2014,04,02,12,10,12.20
2014,04,02,12,11,12.10
2014,04,02,12,12,12.00
2014,04,02,12,13,11.90
2014,04,02,12,14,12.00
2014,04,02,12,15,12.10
2014,04,02,12,16,12.10
2014,04,02,12,17,12.20
2014,04,02,12,18,12.20
2014,04,02,12,19,12.30
2014,04,02,12,20,12.30
2014,04,02,12,21,12.30
2014,04,02,12,22,12.30
2014,04,02,12,23,12.30
2014,04,02,12,24,12.40
2014,04,02,12,25,12.50
2014,04,02,12,26,12.50
2014,04,02,12,27,12.60
2014,04,02,12,28,12.60
2014,04,02,12,29,12.60
2014,04,02,12,30,12.70
2014,04,02,12,31,12.80
2014,04,02,12,32,12.90
2014,04,02,12,33,13.00
2014,04,02,12,34,13.10
2014,04,02,12,35,13.20
2014,04,02,12,36,13.20
2014,04,02,12,37,13.30
2014,04,02,12,38,13.30
2014,04,02,12,39,13.30
2014,04,02,12,40,13.30
2014,04,02,12,41,13.30
2014,04,02,12,42,13.30
2014,04,02,12,43,13.20
2014,04,02,12,44,13.20
2014,04,02,12,45,13.20
2014,04,02,12,46,13.20
2014,04,02,12,47,13.20
2014,04,02,12,48,13.20
2014,04,02,12,49,13.20
2014,04,02,12,50,13.20
2014,04,02,12,51,13.20
2014,04,02,12,52,13.20
2014,04,02,12,53,13.20
2014,04,02,12,54,13.20
2014,04,02,12,55,13.20
2014,04,02,12,56,13.20
2014,04,02,12,57,13.20
2014,04,02,12,58,13.20
2014,04,02,12,59,13.20
2014,04,02,13,00,13.10
2014,04,02,13,01,13.10
2014,04,02,13,02,13.10
2014,04,02,13,03,13.10
2014,04,02,13,04,13.10
2014,04,02,13,05,13.10
2014,04,02,13,06,13.10
2014,04,02,13,07,13.10
2014,04,02,13,08,13.10
2014,04,02,13,09,13.10
2014,04,02,13,10,13.20
2014,04,02,13,11,13.20
2014,04,02,13,12,13.20
2014,04,02,13,13,13.20
2014,04,02,13,14,13.20
2014,04,02,13,15,13.10
2014,04,02,13,16,13.10
2014,04,02,13,17,13.00
2014,04,02,13,18,13.00
2014,04,02,13,19,13.00
2014,04,02,13,20,12.90
2014,04,02,13,21,12.90
2014,04,02,13,22,12.90
2014,04,02,13,23,12.80
2014,04,02,13,24,12.70
2014,04,02,13,25,12.70
2014,04,02,13,26,12.60
2014,04,02,13,27,12.60
2014,04,02,13,28,12.40
2014,04,02,13,29,12.40
2014,04,02,13,30,12.30
2014,04,02,13,31,12.40
2014,04,02,13,32,12.40
2014,04,02,13,33,12.50
2014,04,02,13,34,12.50
2014,04,02,13,35,12.60
2014,04,02,13,36,12.50
2014,04,02,13,37,12.50
2014,04,02,13,38,12.50
2014,04,02,13,39,12.40
2014,04,02,13,40,12.40
2014,04,02,13,41,12.40
2014,04,02,13,42,12.30
2014,04,02,13,43,12.30
2014,04,02,13,44,12.30
2014,04,02,13,45,12.30
2014,04,02,13,46,12.30
2014,04,02,13,47,12.40
2014,04,02,13,48,12.40
2014,04,02,13,49,12.40
2014,04,02,13,50,12.40
2014,04,02,13,51,12.40
2014,04,02,13,52,12.40
2014,04,02,13,53,12.40
2014,04,02,13,54,12.40
2014,04,02,13,55,12.40
2014,04,02,13,56,12.40
2014,04,02,13,57,12.40
2014,04,02,13,58,12.30
2014,04,02,13,59,12.30
2014,04,02,14,00,12.30
2014,04,02,14,01,12.30
2014,04,02,14,02,12.20
2014,04,02,14,03,12.20
2014,04,02,14,04,12.10
2014,04,02,14,05,12.10
2014,04,02,14,06,12.10
2014,04,02,14,07,12.10
2014,04,02,14,08,12.10
2014,04,02,14,09,12.10
2014,04,02,14,10,12.10
2014,04,02,14,11,12.10
2014,04,02,14,12,12.10
2014,04,02,14,13,12.10
2014,04,02,14,14,12.10
2014,04,02,14,15,12.10
2014,04,02,14,16,12.10
2014,04,02,14,17,12.10
2014,04,02,14,18,12.20
2014,04,02,14,19,12.20
2014,04,02,14,20,12.30
2014,04,02,14,21,12.30
2014,04,02,14,22,12.30
2014,04,02,14,23,12.30
2014,04,02,14,24,12.30
2014,04,02,14,25,12.30
2014,04,02,14,26,12.30
2014,04,02,14,27,12.40
2014,04,02,14,28,12.40
2014,04,02,14,29,12.40
2014,04,02,14,30,12.40
2014,04,02,14,31,12.50
2014,04,02,14,32,12.50
2014,04,02,14,33,12.50
2014,04,02,14,34,12.50
2014,04,02,14,35,12.60
2014,04,02,14,36,12.60
2014,04,02,14,37,12.60
2014,04,02,14,38,12.70
2014,04,02,14,39,12.80
2014,04,02,14,40,12.80
2014,04,02,14,41,12.80
2014,04,02,14,42,12.90
2014,04,02,14,43,12.90
2014,04,02,14,44,12.90
2014,04,02,14,45,12.90
2014,04,02,14,46,12.90
2014,04,02,14,47,12.90
2014,04,02,14,48,12.90
2014,04,02,14,49,12.90
2014,04,02,14,50,12.80
2014,04,02,14,51,12.80
2014,04,02,14,52,12.80
2014,04,02,14,53,12.70
2014,04,02,14,54,12.70
2014,04,02,14,55,12.70
2014,04,02,14,56,12.80
2014,04,02,14,57,12.80
2014,04,02,14,58,12.90
2014,04,02,14,59,12.80
2014,04,02,15,00,12.80
2014,04,02,15,01,12.80
2014,04,02,15,02,12.80
2014,04,02,15,03,12.80
2014,04,02,15,04,12.80
2014,04,02,15,05,12.80
2014,04,02,15,06,12.80
2014,04,02,15,07,12.80
2014,04,02,15,08,12.90
2014,04,02,15,09,13.00
2014,04,02,15,10,13.00
2014,04,02,15,11,13.10
2014,04,02,15,12,13.10
2014,04,02,15,13,13.20
2014,04,02,15,14,13.20
2014,04,02,15,15,13.30
2014,04,02,15,16,13.30
2014,04,02,15,17,13.30
2014,04,02,15,18,13.30
2014,04,02,15,19,13.30
2014,04,02,15,20,13.30
2014,04,02,15,21,13.20
2014,04,02,15,22,13.20
2014,04,02,15,23,13.10
2014,04,02,15,24,13.10
2014,04,02,15,25,13.10
2014,04,02,15,26,13.10
2014,04,02,15,27,13.10
2014,04,02,15,28,13.00
2014,04,02,15,29,13.00
2014,04,02,15,30,12.90
2014,04,02,15,31,12.90
2014,04,02,15,32,13.00
2014,04,02,15,33,13.00
2014,04,02,15,34,13.00
2014,04,02,15,35,13.00
2014,04,02,15,36,13.00
2014,04,02,15,37,13.00
2014,04,02,15,38,13.00
2014,04,02,15,39,12.90
2014,04,02,15,40,12.90
2014,04,02,15,41,12.90
2014,04,02,15,42,12.90
2014,04,02,15,43,13.00
2014,04,02,15,44,13.00
2014,04,02,15,45,12.90
2014,04,02,15,46,12.90
2014,04,02,15,47,12.90
2014,04,02,15,48,12.90
2014,04,02,15,49,12.90
2014,04,02,15,50,12.90
2014,04,02,15,51,13.00
2014,04,02,15,52,13.00
2014,04,02,15,53,13.10
2014,04,02,15,54,13.10
2014,04,02,15,55,13.20
2014,04,02,15,56,13.20
2014,04,02,15,57,13.20
2014,04,02,15,58,13.20
2014,04,02,15,59,13.20
2014,04,02,16,00,13.20
2014,04,02,16,01,13.20
2014,04,02,16,02,13.20
2014,04,02,16,03,13.20
2014,04,02,16,04,13.20
2014,04,02,16,05,13.20
2014,04,02,16,06,13.20
2014,04,02,16,07,13.10
2014,04,02,16,08,13.10
2014,04,02,16,09,13.00
2014,04,02,16,10,13.00
2014,04,02,16,11,12.90
2014,04,02,16,12,12.90
2014,04,02,16,13,12.90
2014,04,02,16,14,12.90
2014,04,02,16,15,12.80
2014,04,02,16,16,12.80
2014,04,02,16,17,12.80
2014,04,02,16,18,12.80
2014,04,02,16,19,12.80
2014,04,02,16,20,12.80
2014,04,02,16,21,12.80
2014,04,02,16,22,12.80
2014,04,02,16,23,12.80
2014,04,02,16,24,12.80
2014,04,02,16,25,12.80
2014,04,02,16,26,12.80
2014,04,02,16,27,12.80
2014,04,02,16,28,12.80
2014,04,02,16,29,12.80
2014,04,02,16,30,12.80
2014,04,02,16,31,12.80
2014,04,02,16,32,12.70
2014,04,02,16,33,12.60
2014,04,02,16,34,12.60
2014,04,02,16,35,12.50
2014,04,02,16,36,12.50
2014,04,02,16,37,12.40
2014,04,02,16,38,12.40
2014,04,02,16,39,12.40
2014,04,02,16,40,12.30
2014,04,02,16,41,12.30
2014,04,02,16,42,12.30
2014,04,02,16,43,12.30
2014,04,02,16,44,12.30
2014,04,02,16,45,12.30
2014,04,02,16,46,12.30
2014,04,02,16,47,12.30
2014,04,02,16,48,12.30
2014,04,02,16,49,12.30
2014,04,02,16,50,12.30
2014,04,02,16,51,12.30
2014,04,02,16,52,12.30
2014,04,02,16,53,12.30
2014,04,02,16,54,12.30
2014,04,02,16,55,12.30
2014,04,02,16,56,12.30
2014,04,02,16,57,12.30
2014,04,02,16,58,12.30
2014,04,02,16,59,12.30
2014,04,02,17,00,12.30
2014,04,02,17,01,12.30
2014,04,02,17,02,12.30
2014,04,02,17,03,12.30
2014,04,02,17,04,12.20
2014,04,02,17,05,12.20
2014,04,02,17,06,12.20
2014,04,02,17,07,12.20
2014,04,02,17,08,12.20
2014,04,02,17,09,12.20
2014,04,02,17,10,12.10
2014,04,02,17,11,12.10
2014,04,02,17,12,12.10
2014,04,02,17,13,12.10
2014,04,02,17,14,12.10
2014,04,02,17,15,12.00
2014,04,02,17,16,12.00
2014,04,02,17,17,12.00
2014,04,02,17,18,11.90
2014,04,02,17,19,11.90
2014,04,02,17,20,11.90
2014,04,02,17,21,11.90
2014,04,02,17,22,11.90
2014,04,02,17,23,11.90
2014,04,02,17,24,11.90
2014,04,02,17,25,11.90
2014,04,02,17,26,11.90
2014,04,02,17,27,11.90
2014,04,02,17,28,11.90
2014,04,02,17,29,11.90
2014,04,02,17,30,11.90
2014,04,02,17,31,11.80
2014,04,02,17,32,11.80
2014,04,02,17,33,11.80
2014,04,02,17,34,11.80
2014,04,02,17,35,11.70
2014,04,02,17,36,11.70
2014,04,02,17,37,11.70
2014,04,02,17,38,11.70
2014,04,02,17,39,11.60
2014,04,02,17,40,11.60
2014,04,02,17,41,11.60
2014,04,02,17,42,11.60
2014,04,02,17,43,11.60
2014,04,02,17,44,11.60
2014,04,02,17,45,11.60
2014,04,02,17,46,11.60